Вернуться в каталог

NOAA 16 DEB

АктивенSSO
NORAD 41245·DEBRIS·🇺🇸 United States

Запущен Sep 21, 2000 с Vandenberg Space Force Base

Loading…

Ближайшие Пролёты (ближайшие 24 часа)

TLE

СвежийSource: Space-Track

Эпоха: Sep 12, 2026, 06:33 UTC

1 41245U 00055EV  26255.27331516  .00001266  00000-0  61015-3 0  9995
2 41245  98.5170 273.9810 0014347 190.0669 170.0223 14.20380594550975

Отслеживайте NOAA 16 DEB в реальном времени с AllMySat

Download on the App Store